一网星座-0126星 (ONEWEB-0126 )

导读

ONEWEB-0126是英国OneWeb公司低轨宽带卫星星座的组成卫星,于2020年12月18日发射,运行在1200公里高度的近极轨道。卫星质量约180千克,采用Ku波段通信,通过“弯管式”架构服务全球互联网接入,为偏远地区提供高速宽带连接,遵循空间碎片减缓规范,服务全球通信覆盖。

Basic Information
目录编号:
47272
目录名称:
ONEWEB-0126
国际标识:
2020-100Q
轨道中心:
EARTH
卫星名称:
一网星座-0126星
卫星全名:
一网星座-0126星 (ONEWEB-0126 )
卫星状态:
在轨 (已飞行2002 天)
发射日期:
2020-12-18 UTC
国别 :
英国 (GB)
星等 :
--
Orbit Information
数据来源 国际轨道数据 AOE轨道数据
星历时间 2026-06-12T13:45:08+0800
16小时前
查看轨道信息
2026-06-12T15:00:00+0800
15小时前
查看轨道信息
半长轴 7591.864km 7591.858km
偏心率 0.0001841 0.0002281
轨道倾角 87.894° 87.895°
近地点辐角 93.776° 94.444°
升交点赤经 351.655° 351.643°
平近点角 266.358° 151.195°
近地点 1212.329km 1211.989km
远地点 1215.125km 1215.453km
周期 109.719分钟 109.719分钟
每日圈数 13.124422 13.124438
Detailed Information
平衡模式:
三轴稳定
覆盖范围:
全球
运营商:
一网卫星公司
运营商所在国:
英国
制造商(研发单位):
一网卫星公司
制造商所在国:
英国
使用方式:
暂无
Satellite Introduction
OneWeb卫星网络由648颗重约125公斤的微型卫星组成,运行在1200公里的轨道上。 每颗卫星都能够提供至少每秒8千兆位的吞吐量,以使用其高吞吐量的Ku频段有效载荷为家庭和移动平台提供互联网接入。该卫星仍在工作。
2D Orbit Map
3D Orbit Map
Orbit Altitude Analysis Chart
Orbit Inclination Analysis Chart
Orbit Comprehensive Analysis Chart
View Comprehensive Chart